Hourly Weather Taydakovo

Today, 11 July, Saturday

Time Temperature Precipitation Wind Pressure Humidity
00:00 +14°C° 0 mm 3 mps 746 mmHg 81%
01:00 +13°C° 0 mm 3 mps 746 mmHg 82%
02:00 +13°C° 0 mm 3 mps 746 mmHg 83%
03:00 +13°C° 0 mm 3 mps 746 mmHg 85%
04:00 +13°C° 0 mm 3 mps 746 mmHg 84%
05:00 +13°C° 0 mm 3 mps 746 mmHg 84%
06:00 +14°C° 0 mm 3 mps 746 mmHg 84%
07:00 +17°C° 0 mm 4 mps 746 mmHg 80%
08:00 +18°C° 0 mm 4 mps 746 mmHg 77%
09:00 +20°C° 0 mm 5 mps 746 mmHg 73%
10:00 +21°C° 0 mm 5 mps 746 mmHg 71%
11:00 +22°C° 0 mm 5 mps 746 mmHg 70%
12:00 +23°C° 0 mm 6 mps 746 mmHg 68%
13:00 +23°C° 0 mm 6 mps 746 mmHg 69%
14:00 +24°C° 0 mm 6 mps 746 mmHg 69%
15:00 +24°C° 0 mm 6 mps 745 mmHg 69%
16:00 +25°C° 0 mm 5 mps 745 mmHg 72%
17:00 +25°C° 0 mm 5 mps 745 mmHg 75%
18:00 +25°C° 0 mm 5 mps 744 mmHg 77%
19:00 +23°C° 0 mm 4 mps 744 mmHg 81%
20:00 +21°C° 0 mm 4 mps 744 mmHg 85%
21:00 +20°C° 0 mm 4 mps 744 mmHg 89%
22:00 +20°C° 0 mm 4 mps 744 mmHg 90%
23:00 +19°C° 0 mm 3 mps 744 mmHg 91%

Tomorrow, 12 July, Sunday

Time Temperature Precipitation Wind Pressure Humidity
00:00 +18°C° 0 mm 3 mps 744 mmHg 92%
01:00 +18°C° 0 mm 3 mps 744 mmHg 93%
02:00 +18°C° 0 mm 3 mps 744 mmHg 93%
03:00 +17°C° 0 mm 3 mps 744 mmHg 94%
04:00 +17°C° 0 mm 3 mps 744 mmHg 93%
05:00 +18°C° 0 mm 3 mps 744 mmHg 92%
06:00 +18°C° 0 mm 3 mps 744 mmHg 91%
07:00 +19°C° 0 mm 2 mps 744 mmHg 87%
08:00 +21°C° 0 mm 2 mps 744 mmHg 82%
09:00 +23°C° 0 mm 2 mps 744 mmHg 78%
10:00 +24°C° 0 mm 3 mps 744 mmHg 75%
11:00 +25°C° 0 mm 3 mps 743 mmHg 71%
12:00 +26°C° 0 mm 3 mps 743 mmHg 68%
13:00 +27°C° 0 mm 3 mps 743 mmHg 67%
14:00 +27°C° 0 mm 3 mps 742 mmHg 66%
15:00 +27°C° 0 mm 3 mps 742 mmHg 66%
16:00 +27°C° 0 mm 3 mps 742 mmHg 68%
17:00 +26°C° 0 mm 3 mps 741 mmHg 71%
18:00 +26°C° 0 mm 3 mps 741 mmHg 73%
19:00 +24°C° 0 mm 2 mps 741 mmHg 77%
20:00 +23°C° 0 mm 2 mps 741 mmHg 80%
21:00 +21°C° 0 mm 1 mps 740 mmHg 83%
22:00 +20°C° 0 mm 1 mps 740 mmHg 84%
23:00 +19°C° 0 mm 2 mps 740 mmHg 85%

Day after tomorrow, 13 July, Monday

Time Temperature Precipitation Wind Pressure Humidity
00:00 +18°C° 0 mm 2 mps 740 mmHg 86%
01:00 +18°C° 0 mm 2 mps 740 mmHg 87%
02:00 +17°C° 0 mm 2 mps 739 mmHg 88%
03:00 +17°C° 0 mm 2 mps 739 mmHg 89%
04:00 +18°C° 0 mm 1 mps 739 mmHg 89%
05:00 +19°C° 0 mm 1 mps 738 mmHg 88%
06:00 +19°C° 0 mm 1 mps 738 mmHg 88%
07:00 +20°C° 0 mm 1 mps 738 mmHg 83%
08:00 +22°C° 0 mm 1 mps 738 mmHg 78%
09:00 +23°C° 0 mm 1 mps 738 mmHg 74%
10:00 +24°C° 0 mm 1 mps 737 mmHg 70%
11:00 +25°C° 0 mm 1 mps 737 mmHg 67%
12:00 +26°C° 0 mm 2 mps 737 mmHg 64%
13:00 +26°C° 0.4 mm 2 mps 737 mmHg 65%
14:00 +26°C° 0.4 mm 2 mps 736 mmHg 67%
15:00 +26°C° 0.4 mm 2 mps 736 mmHg 68%
16:00 +25°C° 1.7 mm 2 mps 736 mmHg 74%
17:00 +25°C° 1.7 mm 2 mps 736 mmHg 79%
18:00 +24°C° 1.7 mm 3 mps 736 mmHg 84%
19:00 +22°C° 1.6 mm 3 mps 736 mmHg 87%
20:00 +20°C° 1.6 mm 3 mps 736 mmHg 91%
21:00 +19°C° 1.6 mm 4 mps 736 mmHg 94%
22:00 +19°C° 1.8 mm 4 mps 736 mmHg 94%
23:00 +17°C° 1.8 mm 5 mps 735 mmHg 95%

14 July, Tuesday

Time Temperature Precipitation Wind Pressure Humidity
00:00 +17°C° 1.8 mm 6 mps 735 mmHg 96%
01:00 +16°C° 0.3 mm 5 mps 735 mmHg 96%
02:00 +16°C° 0.3 mm 5 mps 735 mmHg 96%
03:00 +16°C° 0.3 mm 5 mps 735 mmHg 96%
04:00 +15°C° 0.5 mm 5 mps 735 mmHg 96%
05:00 +15°C° 0.5 mm 4 mps 735 mmHg 96%
06:00 +15°C° 0.5 mm 4 mps 735 mmHg 96%
07:00 +15°C° 1.1 mm 5 mps 735 mmHg 96%
08:00 +14°C° 1.1 mm 5 mps 735 mmHg 96%
09:00 +14°C° 1.1 mm 6 mps 736 mmHg 95%
10:00 +14°C° 3.5 mm 5 mps 736 mmHg 96%
11:00 +14°C° 3.5 mm 5 mps 736 mmHg 96%
12:00 +14°C° 3.5 mm 5 mps 736 mmHg 96%
13:00 +14°C° 2.4 mm 5 mps 736 mmHg 95%
14:00 +14°C° 2.4 mm 6 mps 736 mmHg 95%
15:00 +15°C° 2.4 mm 6 mps 736 mmHg 94%
16:00 +15°C° 0.7 mm 5 mps 736 mmHg 93%
17:00 +15°C° 0.7 mm 5 mps 736 mmHg 93%
18:00 +15°C° 0.7 mm 5 mps 735 mmHg 92%
19:00 +15°C° 0.1 mm 5 mps 736 mmHg 91%
20:00 +15°C° 0.1 mm 4 mps 736 mmHg 90%
21:00 +15°C° 0.1 mm 4 mps 736 mmHg 90%
22:00 +15°C° 0 mm 4 mps 736 mmHg 89%
23:00 +15°C° 0 mm 5 mps 736 mmHg 88%

15 July, Wednesday

Time Temperature Precipitation Wind Pressure Humidity
00:00 +15°C° 0 mm 5 mps 735 mmHg 87%
01:00 +14°C° 0.4 mm 5 mps 735 mmHg 87%
02:00 +14°C° 0.4 mm 6 mps 735 mmHg 88%
03:00 +14°C° 0.4 mm 6 mps 735 mmHg 88%
04:00 +13°C° 2.4 mm 6 mps 735 mmHg 90%
05:00 +12°C° 2.4 mm 7 mps 735 mmHg 91%
06:00 +12°C° 2.4 mm 7 mps 735 mmHg 93%
07:00 +11°C° 1.9 mm 7 mps 735 mmHg 93%
08:00 +11°C° 1.9 mm 6 mps 735 mmHg 94%
09:00 +10°C° 1.9 mm 6 mps 735 mmHg 94%
10:00 +11°C° 1.8 mm 6 mps 736 mmHg 94%
11:00 +11°C° 1.8 mm 7 mps 736 mmHg 93%
12:00 +11°C° 1.8 mm 7 mps 736 mmHg 93%
13:00 +10°C° 0.6 mm 7 mps 736 mmHg 92%
14:00 +10°C° 0.6 mm 7 mps 737 mmHg 91%
15:00 +10°C° 0.6 mm 8 mps 737 mmHg 90%
16:00 +10°C° 0.2 mm 7 mps 737 mmHg 90%
17:00 +10°C° 0.2 mm 7 mps 737 mmHg 90%
18:00 +10°C° 0.2 mm 6 mps 737 mmHg 90%
19:00 +10°C° 0.1 mm 6 mps 738 mmHg 90%
20:00 +10°C° 0.1 mm 5 mps 738 mmHg 90%
21:00 +11°C° 0.1 mm 4 mps 738 mmHg 89%
22:00 +11°C° 0 mm 4 mps 738 mmHg 89%
23:00 +11°C° 0 mm 4 mps 738 mmHg 88%

16 July, Thursday

Time Temperature Precipitation Wind Pressure Humidity
00:00 +11°C° 0 mm 3 mps 738 mmHg 88%
01:00 +11°C° 0 mm 4 mps 738 mmHg 88%
02:00 +11°C° 0 mm 4 mps 738 mmHg 89%
03:00 +11°C° 0 mm 4 mps 738 mmHg 90%
04:00 +12°C° 0 mm 4 mps 738 mmHg 90%
05:00 +12°C° 0 mm 3 mps 738 mmHg 90%
06:00 +12°C° 0 mm 3 mps 738 mmHg 91%
07:00 +13°C° 0.1 mm 3 mps 738 mmHg 90%
08:00 +14°C° 0.1 mm 4 mps 738 mmHg 89%
09:00 +14°C° 0.1 mm 4 mps 738 mmHg 88%
10:00 +17°C° 0.3 mm 4 mps 738 mmHg 84%
11:00 +18°C° 0.3 mm 4 mps 738 mmHg 80%
12:00 +19°C° 0.3 mm 5 mps 738 mmHg 76%
13:00 +20°C° 0.3 mm 4 mps 738 mmHg 74%
14:00 +20°C° 0.3 mm 4 mps 738 mmHg 72%
15:00 +21°C° 0.3 mm 4 mps 737 mmHg 70%
16:00 +21°C° 0.1 mm 3 mps 737 mmHg 72%
17:00 +21°C° 0.1 mm 3 mps 737 mmHg 75%
18:00 +21°C° 0.1 mm 2 mps 737 mmHg 77%
19:00 +19°C° 0 mm 2 mps 737 mmHg 78%
20:00 +18°C° 0 mm 2 mps 737 mmHg 80%
21:00 +16°C° 0 mm 2 mps 737 mmHg 81%
22:00 +15°C° 0 mm 2 mps 737 mmHg 84%
23:00 +15°C° 0 mm 2 mps 737 mmHg 86%
Show more